User: anonymous   Login
Location: Castifao
(42.5040°N, 9.1124°E)
Time: 12:56:06
(UTC+00:00)
Language:

Ariane Rocket - Orbit

View from above orbital plane
View from above orbital plane
View from above satellite
View from above satellite

Ground track
Ground track

The orbit data is extracted from the following two-line orbital elements,

1 23561U 95021B   20098.84915001  .00000035  00000-0  26631-4 0  9991
2 23561  98.7329 136.9274 0008114 102.8169  71.4337 14.37962554308642
Epoch (UTC): 07 April 2020 20:22:46
Eccentricity: 0.0008114
inclination: 98.7329°
perigee height: 759 km
apogee height: 771 km
right ascension of ascending node: 136.9274°
argument of perigee: 102.8169°
revolutions per day: 14.37962554
mean anomaly at epoch: 71.4337°
orbit number at epoch: 30864

The dashed part of the orbit path shows where the satellite is in the earth's shadow,  

DLR